{"data":{"norad_id":66520,"intl_designator":"2025-265E","name":"STARLINK-35952","alt_names":[],"object_type":"PAYLOAD","status":"ACTIVE","operator":null,"country":"US","launch_date":"2025-11-19","launch_site_code":"AFETR","launch_vehicle":null,"mission":null,"orbit_class":"UNKNOWN","rcs_meters":null,"size_class":null,"mass_kg":null,"dimensions":null,"purposes":["comms"],"wikipedia_slug":null,"has_3d_model":false,"image_url":null,"decayed_at":null,"tle_current":{"epoch":"2026-09-20T16:30:52.490592Z","epoch_age_seconds":73681,"freshness":"FRESH","line1":"1 66520U 25265E   26263.68810753  .00007305  00000+0  27469-3 0  9991","line2":"2 66520  42.9992 256.8875 0001169 268.6755  91.3963 15.27583606 46939","mean_motion":15.27583606,"eccentricity":0.0001169,"inclination_deg":42.9992,"raan_deg":256.8875,"arg_perigee_deg":268.6755,"mean_anomaly_deg":91.3963,"bstar":0.00027469,"rev_number":4693,"period_min":94.26652618842,"perigee_km":482.23622700726,"apogee_km":483.84036979202,"semimajor_km":6861.1752983996,"source":"CELESTRAK","updated_at":"2026-09-21T09:00:35.926013Z"}}}